QPF
0.07 0.08 0.08 0.06 0.06 0.05 0.06 0.08 0.10 0.10 0.08 0.07 0.05 0.03 0.04 0.04 0.03 0.03 0.04 0.04 0.03 0.02 0.02 0.01 0.01 0.02 0.02 0.02 0.02 0.01 0.02 0.03 0.03 0.04 0.06 0.06 0.05 0.04
0.10 0.12 0.10 0.07 0.07 0.05 0.06 0.09 0.11 0.11 0.10 0.06 0.04 0.02 0.03 0.03 0.03 0.03 0.04 0.04 0.03 0.02 0.01 0.01 0.01 0.01 0.02 0.02 0.03 0.03 0.03 0.04 0.03 0.03 0.04 0.05 0.04 0.04
0.11 0.11 0.10 0.11 0.09 0.06 0.07 0.07 0.09 0.10 0.09 0.06 0.04 0.03 0.04 0.03 0.04 0.05 0.05 0.05 0.04 0.03 0.02 0.01 0.01 0.02 0.01 0.01 0.02 0.02 0.02 0.03 0.02 0.02 0.03 0.04 0.04 0.04
0.11 0.13 0.11 0.12 0.12 0.09 0.09 0.10 0.07 0.08 0.07 0.06 0.05 0.04 0.05 0.05 0.06 0.07 0.06 0.04 0.04 0.05 0.03 0.02 0.02 0.02 0.01 0.01 0.01 0.01 0.01 0.01 0.01 0.01 0.02 0.02 0.02 0.03
0.11 0.12 0.12 0.14 0.14 0.11 0.09 0.08 0.08 0.07 0.09 0.08 0.06 0.06 0.05 0.08 0.11 0.09 0.07 0.06 0.04 0.05 0.05 0.03 0.02 0.02 0.01 0.01 0.01 0.01 0.00 0.01 0.01 0.01 0.01 0.01 0.01 0.01
0.11 0.11 0.11 0.13 0.14 0.13 0.11 0.12 0.12 0.13 0.13 0.12 0.10 0.08 0.07 0.09 0.12 0.11 0.10 0.07 0.04 0.03 0.05 0.03 0.03 0.02 0.02 0.01 0.01 0.01 0.00 0.00 0.01 0.01 0.01 0.01 0.01 0.01
0.11 0.10 0.09 0.08 0.09 0.11 0.09 0.13 0.16 0.16 0.14 0.13 0.11 0.09 0.09 0.11 0.11 0.11 0.10 0.08 0.05 0.03 0.05 0.04 0.04 0.04 0.03 0.02 0.01 0.01 0.01 0.01 0.01 0.01 0.01 0.01 0.02 0.02
0.09 0.10 0.07 0.07 0.07 0.08 0.07 0.08 0.10 0.11 0.12 0.15 0.13 0.10 0.08 0.09 0.11 0.11 0.11 0.10 0.07 0.05 0.06 0.06 0.04 0.04 0.04 0.03 0.03 0.03 0.02 0.02 0.01 0.01 0.01 0.01 0.01 0.01
0.06 0.07 0.05 0.05 0.08 0.06 0.06 0.05 0.05 0.05 0.07 0.11 0.13 0.10 0.09 0.09 0.11 0.11 0.12 0.12 0.09 0.08 0.10 0.09 0.09 0.07 0.04 0.03 0.04 0.03 0.03 0.03 0.02 0.02 0.01 0.01 0.01 0.01
0.05 0.06 0.06 0.07 0.06 0.07 0.07 0.06 0.05 0.05 0.07 0.07 0.08 0.09 0.10 0.10 0.11 0.09 0.10 0.12 0.12 0.11 0.11 0.09 0.09 0.09 0.07 0.07 0.07 0.06 0.05 0.03 0.02 0.02 0.02 0.02 0.02 0.02
0.05 0.06 0.06 0.05 0.07 0.09 0.09 0.07 0.06 0.06 0.06 0.07 0.08 0.08 0.08 0.08 0.09 0.09 0.09 0.10 0.10 0.08 0.08 0.08 0.06 0.09 0.11 0.12 0.08 0.07 0.07 0.05 0.03 0.02 0.02 0.02 0.02 0.02
0.05 0.06 0.06 0.07 0.07 0.08 0.08 0.06 0.04 0.04 0.05 0.05 0.06 0.06 0.05 0.06 0.06 0.06 0.07 0.09 0.10 0.09 0.09 0.11 0.10 0.12 0.14 0.11 0.09 0.08 0.08 0.06 0.04 0.03 0.02 0.02 0.02 0.01
0.06 0.07 0.07 0.08 0.07 0.07 0.08 0.07 0.06 0.06 0.07 0.07 0.08 0.07 0.07 0.07 0.08 0.09 0.09 0.10 0.10 0.09 0.09 0.13 0.14 0.15 0.15 0.11 0.08 0.09 0.08 0.07 0.05 0.04 0.03 0.02 0.02 0.01
0.09 0.09 0.08 0.08 0.09 0.09 0.09 0.09 0.09 0.09 0.09 0.10 0.12 0.11 0.09 0.08 0.09 0.11 0.12 0.12 0.10 0.09 0.10 0.13 0.13 0.13 0.14 0.12 0.07 0.07 0.08 0.08 0.06 0.04 0.03 0.03 0.02 0.02
0.08 0.09 0.10 0.10 0.10 0.10 0.11 0.11 0.10 0.10 0.10 0.11 0.11 0.10 0.09 0.08 0.07 0.06 0.07 0.09 0.09 0.08 0.08 0.11 0.13 0.16 0.16 0.13 0.10 0.08 0.08 0.08 0.06 0.05 0.03 0.03 0.02 0.02
0.06 0.08 0.08 0.08 0.08 0.09 0.09 0.09 0.09 0.08 0.07 0.07 0.06 0.06 0.05 0.05 0.05 0.04 0.05 0.06 0.07 0.07 0.08 0.09 0.11 0.12 0.14 0.12 0.11 0.09 0.08 0.07 0.05 0.05 0.04 0.04 0.03 0.02
0.05 0.06 0.07 0.07 0.06 0.06 0.06 0.06 0.05 0.03 0.03 0.03 0.03 0.03 0.04 0.04 0.04 0.04 0.05 0.06 0.06 0.05 0.06 0.07 0.09 0.12 0.13 0.13 0.11 0.08 0.07 0.06 0.05 0.05 0.06 0.06 0.06 0.04
0.05 0.05 0.04 0.05 0.04 0.03 0.03 0.03 0.03 0.02 0.02 0.03 0.03 0.04 0.04 0.04 0.04 0.04 0.04 0.05 0.06 0.06 0.06 0.07 0.08 0.10 0.11 0.11 0.11 0.10 0.07 0.05 0.04 0.05 0.05 0.06 0.06 0.07
0.05 0.05 0.04 0.03 0.03 0.03 0.03 0.03 0.02 0.02 0.02 0.03 0.04 0.04 0.05 0.06 0.05 0.04 0.04 0.05 0.05 0.06 0.06 0.06 0.07 0.08 0.08 0.06 0.06 0.07 0.07 0.05 0.05 0.05 0.05 0.06 0.06 0.06
0.05 0.05 0.05 0.04 0.04 0.03 0.03 0.03 0.02 0.02 0.02 0.03 0.04 0.05 0.06 0.06 0.06 0.06 0.05 0.05 0.05 0.06 0.06 0.07 0.08 0.09 0.08 0.07 0.06 0.06 0.07 0.07 0.07 0.06 0.06 0.07 0.07 0.07
0.04 0.04 0.05 0.05 0.05 0.04 0.04 0.04 0.04 0.03 0.03 0.03 0.03 0.03 0.04 0.05 0.05 0.06 0.06 0.06 0.06 0.07 0.07 0.07 0.08 0.11 0.12 0.12 0.09 0.06 0.07 0.10 0.09 0.08 0.08 0.08 0.07 0.06
0.05 0.05 0.05 0.04 0.04 0.04 0.04 0.03 0.02 0.02 0.02 0.03 0.03 0.03 0.03 0.04 0.04 0.05 0.06 0.08 0.09 0.08 0.08 0.08 0.08 0.09 0.10 0.09 0.09 0.08 0.08 0.09 0.10 0.09 0.08 0.08 0.07 0.06
0.04 0.04 0.03 0.03 0.03 0.02 0.02 0.02 0.02 0.02 0.03 0.03 0.04 0.04 0.04 0.04 0.04 0.04 0.05 0.06 0.07 0.08 0.08 0.08 0.08 0.08 0.08 0.09 0.09 0.10 0.10 0.09 0.10 0.09 0.09 0.09 0.07 0.07
MSLP
1011.76 1011.91 1012.10 1012.31 1012.51 1012.65 1012.71 1012.66 1012.49 1012.21 1011.84 1011.42 1010.96 1010.53 1010.16 1009.88 1009.73 1009.70 1009.81 1010.06 1010.41 1010.84 1011.32 1011.80 1012.25 1012.66 1013.01 1013.31 1013.56 1013.79 1014.04 1014.34 1014.69 1015.13 1015.64 1016.20 1016.80 1017.41
1011.17 1011.23 1011.34 1011.48 1011.61 1011.71 1011.76 1011.72 1011.59 1011.37 1011.06 1010.69 1010.28 1009.88 1009.51 1009.22 1009.03 1008.97 1009.04 1009.25 1009.57 1009.98 1010.44 1010.92 1011.39 1011.81 1012.18 1012.49 1012.77 1013.03 1013.30 1013.63 1014.02 1014.49 1015.04 1015.64 1016.28 1016.91
1010.74 1010.72 1010.73 1010.77 1010.81 1010.85 1010.85 1010.80 1010.69 1010.50 1010.26 1009.95 1009.61 1009.25 1008.92 1008.65 1008.46 1008.38 1008.42 1008.59 1008.87 1009.25 1009.68 1010.14 1010.58 1011.00 1011.37 1011.68 1011.97 1012.25 1012.55 1012.90 1013.33 1013.84 1014.42 1015.07 1015.74 1016.41
1010.53 1010.42 1010.33 1010.26 1010.21 1010.16 1010.10 1010.02 1009.91 1009.75 1009.55 1009.30 1009.02 1008.73 1008.45 1008.20 1008.02 1007.93 1007.95 1008.08 1008.32 1008.64 1009.03 1009.44 1009.85 1010.24 1010.58 1010.89 1011.17 1011.46 1011.78 1012.16 1012.62 1013.16 1013.79 1014.48 1015.20 1015.91
1010.53 1010.35 1010.18 1010.02 1009.88 1009.75 1009.62 1009.50 1009.37 1009.22 1009.04 1008.83 1008.59 1008.34 1008.10 1007.88 1007.70 1007.61 1007.60 1007.69 1007.87 1008.14 1008.47 1008.82 1009.17 1009.51 1009.82 1010.10 1010.38 1010.66 1011.00 1011.40 1011.89 1012.48 1013.15 1013.89 1014.65 1015.41
1010.69 1010.48 1010.25 1010.03 1009.82 1009.62 1009.43 1009.26 1009.10 1008.93 1008.75 1008.55 1008.34 1008.11 1007.87 1007.66 1007.48 1007.36 1007.31 1007.36 1007.49 1007.69 1007.94 1008.23 1008.53 1008.81 1009.08 1009.34 1009.60 1009.89 1010.24 1010.66 1011.19 1011.81 1012.52 1013.30 1014.12 1014.93
1010.93 1010.71 1010.47 1010.22 1009.97 1009.72 1009.49 1009.28 1009.08 1008.88 1008.67 1008.46 1008.22 1007.98 1007.73 1007.49 1007.28 1007.12 1007.03 1007.01 1007.08 1007.21 1007.40 1007.63 1007.87 1008.11 1008.35 1008.59 1008.85 1009.16 1009.53 1009.98 1010.54 1011.20 1011.94 1012.76 1013.61 1014.47
1011.14 1010.95 1010.73 1010.48 1010.23 1009.97 1009.72 1009.47 1009.23 1008.99 1008.74 1008.48 1008.20 1007.90 1007.61 1007.32 1007.05 1006.83 1006.68 1006.59 1006.59 1006.66 1006.79 1006.96 1007.16 1007.38 1007.61 1007.87 1008.15 1008.48 1008.89 1009.38 1009.98 1010.67 1011.45 1012.29 1013.17 1014.04
1011.24 1011.10 1010.92 1010.71 1010.48 1010.23 1009.98 1009.71 1009.44 1009.15 1008.85 1008.53 1008.19 1007.82 1007.45 1007.09 1006.75 1006.45 1006.22 1006.06 1005.98 1005.99 1006.06 1006.20 1006.38 1006.60 1006.85 1007.14 1007.48 1007.87 1008.33 1008.88 1009.52 1010.25 1011.05 1011.90 1012.77 1013.64
1011.18 1011.09 1010.97 1010.81 1010.62 1010.41 1010.16 1009.90 1009.60 1009.28 1008.93 1008.55 1008.13 1007.69 1007.24 1006.79 1006.36 1005.97 1005.65 1005.41 1005.25 1005.19 1005.22 1005.33 1005.51 1005.75 1006.04 1006.39 1006.81 1007.28 1007.83 1008.45 1009.14 1009.90 1010.72 1011.57 1012.42 1013.26
1010.98 1010.94 1010.86 1010.75 1010.61 1010.42 1010.20 1009.94 1009.64 1009.30 1008.91 1008.48 1008.00 1007.49 1006.96 1006.42 1005.90 1005.42 1005.00 1004.67 1004.43 1004.29 1004.27 1004.35 1004.53 1004.80 1005.15 1005.58 1006.09 1006.66 1007.30 1008.01 1008.77 1009.57 1010.40 1011.23 1012.05 1012.84
1010.70 1010.68 1010.63 1010.55 1010.44 1010.28 1010.08 1009.83 1009.53 1009.18 1008.78 1008.31 1007.80 1007.24 1006.65 1006.04 1005.43 1004.86 1004.34 1003.90 1003.56 1003.34 1003.25 1003.29 1003.46 1003.74 1004.15 1004.66 1005.26 1005.94 1006.68 1007.48 1008.31 1009.15 1009.99 1010.81 1011.59 1012.33
1010.42 1010.40 1010.35 1010.27 1010.15 1010.00 1009.81 1009.57 1009.28 1008.94 1008.54 1008.08 1007.56 1006.98 1006.35 1005.68 1005.01 1004.34 1003.72 1003.17 1002.72 1002.39 1002.21 1002.18 1002.30 1002.59 1003.02 1003.59 1004.27 1005.04 1005.89 1006.77 1007.67 1008.56 1009.41 1010.22 1010.97 1011.66
1010.24 1010.17 1010.08 1009.96 1009.82 1009.65 1009.45 1009.21 1008.94 1008.62 1008.24 1007.81 1007.30 1006.73 1006.09 1005.40 1004.67 1003.92 1003.20 1002.53 1001.95 1001.49 1001.19 1001.06 1001.11 1001.35 1001.77 1002.36 1003.10 1003.94 1004.85 1005.81 1006.77 1007.70 1008.58 1009.39 1010.13 1010.78
1010.17 1010.03 1009.87 1009.68 1009.49 1009.27 1009.05 1008.81 1008.54 1008.25 1007.92 1007.53 1007.06 1006.52 1005.90 1005.20 1004.43 1003.62 1002.80 1002.01 1001.29 1000.69 1000.24 999.98 999.92 1000.08 1000.45 1001.02 1001.76 1002.64 1003.60 1004.60 1005.60 1006.57 1007.47 1008.29 1009.02 1009.66
1010.18 1009.95 1009.70 1009.44 1009.16 1008.89 1008.63 1008.38 1008.13 1007.87 1007.58 1007.25 1006.85 1006.36 1005.77 1005.08 1004.29 1003.44 1002.53 1001.63 1000.78 1000.02 999.41 999.00 998.81 998.85 999.13 999.64 1000.35 1001.21 1002.17 1003.19 1004.21 1005.19 1006.11 1006.93 1007.67 1008.32
1010.19 1009.88 1009.54 1009.19 1008.84 1008.51 1008.21 1007.95 1007.71 1007.48 1007.25 1006.98 1006.64 1006.22 1005.68 1005.02 1004.23 1003.34 1002.38 1001.38 1000.40 999.51 998.75 998.19 997.85 997.76 997.93 998.34 998.97 999.78 1000.70 1001.70 1002.70 1003.67 1004.58 1005.41 1006.15 1006.82
1010.10 1009.73 1009.31 1008.89 1008.48 1008.11 1007.78 1007.51 1007.28 1007.09 1006.91 1006.70 1006.43 1006.07 1005.59 1004.97 1004.20 1003.30 1002.30 1001.24 1000.18 999.18 998.30 997.61 997.14 996.92 996.96 997.26 997.79 998.51 999.36 1000.28 1001.23 1002.17 1003.05 1003.85 1004.59 1005.26
1009.82 1009.41 1008.95 1008.49 1008.05 1007.66 1007.32 1007.06 1006.86 1006.70 1006.57 1006.42 1006.21 1005.91 1005.49 1004.91 1004.17 1003.29 1002.29 1001.21 1000.11 999.05 998.10 997.31 996.74 996.41 996.34 996.53 996.94 997.55 998.29 999.11 999.98 1000.83 1001.65 1002.41 1003.12 1003.79
1009.31 1008.89 1008.44 1007.98 1007.55 1007.17 1006.85 1006.61 1006.45 1006.33 1006.24 1006.14 1005.99 1005.74 1005.37 1004.84 1004.15 1003.31 1002.34 1001.28 1000.18 999.12 998.14 997.32 996.69 996.29 996.13 996.21 996.51 996.99 997.61 998.31 999.05 999.80 1000.53 1001.22 1001.89 1002.53
1008.59 1008.20 1007.79 1007.38 1006.99 1006.66 1006.39 1006.20 1006.08 1006.01 1005.96 1005.90 1005.78 1005.58 1005.25 1004.77 1004.13 1003.35 1002.44 1001.44 1000.40 999.38 998.44 997.62 996.98 996.54 996.33 996.32 996.52 996.88 997.36 997.92 998.53 999.16 999.78 1000.38 1000.98 1001.59
1007.73 1007.41 1007.07 1006.74 1006.44 1006.18 1005.99 1005.87 1005.80 1005.77 1005.75 1005.72 1005.63 1005.45 1005.16 1004.72 1004.15 1003.43 1002.60 1001.69 1000.74 999.81 998.93 998.17 997.56 997.13 996.88 996.81 996.92 997.16 997.51 997.94 998.41 998.90 999.41 999.92 1000.45 1001.01
1006.84 1006.60 1006.36 1006.14 1005.95 1005.80 1005.70 1005.65 1005.64 1005.65 1005.66 1005.64 1005.56 1005.40 1005.13 1004.73 1004.21 1003.57 1002.83 1002.02 1001.18 1000.35 999.58 998.90 998.34 997.93 997.67 997.56 997.59 997.73 997.97 998.26 998.61 998.98 999.38 999.81 1000.27 1000.79
Thickness
5769 5767 5766 5766 5766 5765 5763 5759 5750 5743 5745 5754 5758 5763 5762 5760 5758 5756 5754 5752 5749 5748 5746 5744 5742 5741 5739 5738 5736 5735 5733 5732 5730 5728 5726 5723 5721 5719
5767 5765 5764 5763 5763 5762 5761 5760 5757 5750 5744 5751 5755 5759 5759 5758 5755 5753 5751 5749 5746 5744 5743 5741 5739 5738 5736 5735 5733 5731 5730 5728 5726 5724 5722 5720 5718 5716
5764 5762 5760 5759 5757 5757 5757 5756 5754 5751 5744 5748 5752 5754 5753 5752 5750 5749 5748 5745 5743 5741 5740 5738 5736 5734 5732 5731 5729 5727 5726 5724 5722 5720 5718 5716 5714 5712
5760 5758 5757 5756 5754 5752 5751 5750 5749 5749 5745 5742 5745 5747 5747 5748 5746 5745 5744 5743 5741 5739 5737 5735 5733 5730 5728 5726 5725 5723 5721 5719 5717 5716 5714 5712 5710 5708
5757 5754 5752 5750 5748 5747 5746 5744 5745 5746 5744 5740 5740 5742 5742 5743 5741 5740 5739 5738 5736 5735 5732 5730 5728 5726 5724 5722 5720 5718 5716 5714 5712 5710 5708 5706 5705 5703
5753 5750 5748 5746 5743 5742 5741 5740 5739 5737 5737 5735 5734 5734 5734 5735 5733 5730 5728 5729 5729 5729 5727 5724 5722 5720 5718 5716 5715 5712 5710 5709 5707 5705 5703 5701 5699 5697
5747 5746 5743 5741 5740 5738 5737 5735 5733 5730 5728 5727 5726 5725 5724 5723 5722 5722 5720 5720 5721 5722 5719 5718 5716 5713 5712 5710 5708 5707 5705 5703 5701 5699 5697 5695 5693 5691
5739 5738 5737 5736 5734 5733 5731 5730 5728 5724 5722 5720 5719 5717 5717 5717 5716 5714 5712 5709 5708 5714 5711 5710 5710 5707 5707 5705 5704 5702 5699 5697 5694 5692 5690 5688 5686 5684
5732 5730 5730 5730 5727 5726 5724 5723 5721 5720 5718 5716 5713 5713 5712 5712 5709 5706 5704 5702 5701 5703 5702 5700 5702 5700 5701 5700 5698 5696 5694 5691 5688 5686 5683 5681 5679 5677
5726 5724 5721 5720 5719 5717 5716 5715 5714 5712 5711 5710 5709 5709 5708 5706 5704 5701 5699 5696 5696 5695 5694 5690 5693 5692 5694 5692 5691 5689 5687 5684 5682 5679 5676 5674 5672 5671
5719 5717 5715 5713 5711 5709 5706 5705 5704 5703 5704 5703 5703 5701 5700 5698 5695 5691 5688 5685 5683 5685 5686 5682 5684 5684 5683 5682 5681 5680 5678 5676 5673 5671 5669 5667 5665 5663
5710 5709 5706 5704 5701 5699 5697 5695 5693 5694 5693 5693 5691 5691 5690 5688 5686 5682 5680 5676 5675 5675 5678 5675 5674 5673 5670 5673 5671 5670 5668 5666 5664 5663 5661 5660 5657 5654
5702 5700 5698 5695 5692 5691 5688 5686 5685 5684 5683 5682 5681 5681 5680 5677 5676 5673 5671 5669 5666 5665 5668 5666 5663 5662 5660 5660 5661 5660 5659 5658 5656 5654 5653 5651 5650 5647
5693 5692 5689 5685 5683 5681 5679 5678 5676 5674 5673 5672 5671 5669 5668 5666 5665 5664 5662 5661 5660 5658 5659 5657 5654 5652 5650 5648 5649 5650 5650 5650 5649 5646 5645 5643 5641 5639
5684 5682 5678 5676 5674 5672 5671 5669 5666 5665 5663 5661 5660 5659 5658 5657 5655 5653 5652 5651 5650 5649 5650 5649 5647 5645 5642 5639 5639 5640 5639 5640 5640 5639 5637 5635 5634 5632
5671 5669 5667 5666 5664 5662 5661 5660 5658 5657 5654 5652 5651 5649 5648 5646 5644 5642 5641 5639 5638 5638 5640 5640 5638 5636 5633 5632 5631 5630 5631 5631 5631 5630 5629 5628 5627 5626
5658 5658 5658 5657 5655 5653 5652 5651 5649 5647 5644 5642 5641 5639 5637 5635 5634 5633 5631 5629 5627 5627 5628 5629 5629 5627 5626 5624 5622 5623 5623 5622 5621 5621 5619 5618 5619 5619
5647 5647 5647 5646 5644 5643 5641 5639 5638 5635 5634 5632 5630 5627 5626 5624 5623 5623 5621 5619 5617 5616 5617 5617 5617 5615 5613 5613 5614 5613 5612 5612 5611 5611 5611 5609 5609 5611
5637 5638 5637 5636 5634 5633 5631 5628 5626 5624 5622 5620 5618 5616 5614 5613 5611 5610 5609 5607 5606 5606 5606 5606 5605 5603 5601 5601 5604 5605 5604 5603 5601 5601 5601 5601 5601 5602
5630 5629 5627 5626 5624 5622 5620 5617 5615 5613 5610 5608 5606 5604 5603 5601 5599 5598 5597 5596 5596 5596 5595 5595 5594 5593 5591 5592 5593 5595 5596 5595 5593 5592 5592 5593 5593 5594
5622 5620 5618 5616 5614 5611 5609 5607 5604 5602 5600 5597 5595 5593 5592 5589 5588 5587 5586 5585 5585 5585 5585 5585 5585 5586 5585 5585 5584 5586 5587 5587 5587 5585 5584 5583 5583 5584
5612 5610 5608 5606 5604 5602 5599 5596 5594 5592 5589 5587 5585 5583 5581 5579 5578 5578 5577 5576 5576 5576 5576 5577 5578 5578 5576 5575 5575 5576 5577 5577 5578 5578 5578 5578 5577 5577
5604 5602 5600 5597 5595 5592 5590 5587 5585 5582 5579 5577 5575 5573 5571 5570 5569 5569 5569 5568 5568 5568 5567 5568 5568 5568 5568 5568 5567 5568 5569 5569 5570 5569 5570 5571 5572 5573